SCO8BI EGAC-EGPE

Flight info

Callsign SCO8BI
Flight time 0h 58m
Altitude 23000
Route BLACA P600 TRN DCT GOW N560 NESDI DCT GUSSI DCT INS
Aircraft AT46/M-SDFGIRY/S

Departure

Time 2026-04-14 15:26
Airport George Best Belfast City Airport (EGAC)

Arrival

Time 2026-04-14 16:24
Airport Inverness Airport (EGPE)
Time Latitude Longitude Altitude Speed Heading
2026-04-14 14:54 54.61410 -5.87259 47 ft 0 kts 126°
2026-04-14 15:18 54.61420 -5.87283 23 ft 4 kts 120°
2026-04-14 15:18 54.61429 -5.87324 21 ft 4 kts 87°
2026-04-14 15:18 54.61423 -5.87354 20 ft 1 kts 35°
2026-04-14 15:18 54.61422 -5.87354 20 ft 0 kts 35°
2026-04-14 15:22 54.61434 -5.87340 23 ft 6 kts 35°
2026-04-14 15:22 54.61495 -5.87266 20 ft 13 kts 34°
2026-04-14 15:22 54.61578 -5.87165 20 ft 15 kts 35°
2026-04-14 15:22 54.61667 -5.87060 20 ft 16 kts 34°
2026-04-14 15:23 54.61757 -5.86999 20 ft 5 kts 325°
2026-04-14 15:23 54.61766 -5.87014 20 ft 0 kts 310°
2026-04-14 15:23 54.61771 -5.87025 20 ft 6 kts 310°
2026-04-14 15:23 54.61823 -5.87147 20 ft 18 kts 306°
2026-04-14 15:24 54.61919 -5.87117 20 ft 17 kts 36°
2026-04-14 15:24 54.62030 -5.86986 20 ft 21 kts 34°
2026-04-14 15:24 54.62181 -5.86805 20 ft 31 kts 36°
2026-04-14 15:24 54.62340 -5.86619 21 ft 25 kts 35°
2026-04-14 15:25 54.62426 -5.86451 20 ft 15 kts 44°
2026-04-14 15:25 54.62471 -5.86455 22 ft 0 kts 249°
2026-04-14 15:25 54.62465 -5.86466 21 ft 3 kts 229°
2026-04-14 15:25 54.62441 -5.86495 20 ft 22 kts 211°
2026-04-14 15:26 54.62081 -5.86911 20 ft 100 kts 214°
2026-04-14 15:26 54.61467 -5.87809 496 ft 120 kts 212°
2026-04-14 15:26 54.60811 -5.88815 1198 ft 131 kts 212°
2026-04-14 15:26 54.60093 -5.89846 1946 ft 136 kts 211°
2026-04-14 15:27 54.59247 -5.90356 2674 ft 138 kts 175°
2026-04-14 15:27 54.58424 -5.89326 3186 ft 169 kts 128°
2026-04-14 15:27 54.58103 -5.87208 3676 ft 197 kts 97°
2026-04-14 15:27 54.58364 -5.84780 4224 ft 215 kts 74°
2026-04-14 15:28 54.59180 -5.82565 4887 ft 223 kts 50°
2026-04-14 15:28 54.60379 -5.80960 5657 ft 220 kts 33°
2026-04-14 15:28 54.61706 -5.79758 6497 ft 215 kts 27°
2026-04-14 15:28 54.63046 -5.78549 7094 ft 219 kts 33°
2026-04-14 15:29 54.64294 -5.77089 7869 ft 215 kts 38°
2026-04-14 15:29 54.65456 -5.75479 8442 ft 214 kts 46°
2026-04-14 15:29 54.66482 -5.73617 8939 ft 214 kts 54°
2026-04-14 15:29 54.67377 -5.71563 9457 ft 214 kts 60°
2026-04-14 15:30 54.68193 -5.69406 9933 ft 215 kts 62°
2026-04-14 15:30 54.68986 -5.67215 10349 ft 216 kts 63°
2026-04-14 15:30 54.69786 -5.64998 10754 ft 218 kts 62°
2026-04-14 15:30 54.70598 -5.62768 11171 ft 220 kts 61°
2026-04-14 15:31 54.71442 -5.60528 11583 ft 222 kts 60°
2026-04-14 15:31 54.72295 -5.58291 11990 ft 224 kts 59°
2026-04-14 15:31 54.73155 -5.56032 12382 ft 226 kts 59°
2026-04-14 15:31 54.74022 -5.53750 12784 ft 228 kts 59°
2026-04-14 15:32 54.74899 -5.51451 13184 ft 229 kts 59°
2026-04-14 15:32 54.75777 -5.49138 13578 ft 231 kts 59°
2026-04-14 15:32 54.76665 -5.46797 13924 ft 233 kts 58°
2026-04-14 15:32 54.77555 -5.44439 14256 ft 235 kts 57°
2026-04-14 15:33 54.78444 -5.42096 14565 ft 237 kts 57°
2026-04-14 15:33 54.79349 -5.39708 14898 ft 238 kts 57°
2026-04-14 15:33 54.80260 -5.37301 15249 ft 239 kts 56°
2026-04-14 15:33 54.81178 -5.34879 15575 ft 241 kts 56°
2026-04-14 15:34 54.82096 -5.32446 15915 ft 242 kts 56°
2026-04-14 15:34 54.83019 -5.29995 16249 ft 244 kts 55°
2026-04-14 15:34 54.83952 -5.27526 16541 ft 245 kts 55°
2026-04-14 15:34 54.84888 -5.25033 16846 ft 246 kts 54°
2026-04-14 15:35 54.85823 -5.22542 17149 ft 247 kts 54°
2026-04-14 15:35 54.86765 -5.20035 17442 ft 249 kts 54°
2026-04-14 15:35 54.87712 -5.17507 17726 ft 250 kts 54°
2026-04-14 15:35 54.88872 -5.15342 17975 ft 242 kts 28°
2026-04-14 15:36 54.90315 -5.13936 18211 ft 240 kts 19°
2026-04-14 15:36 54.91835 -5.12733 18428 ft 240 kts 17°
2026-04-14 15:36 54.93365 -5.11549 18640 ft 241 kts 18°
2026-04-14 15:36 54.94901 -5.10313 18790 ft 246 kts 19°
2026-04-14 15:37 54.96460 -5.08986 18939 ft 251 kts 20°
2026-04-14 15:37 54.98022 -5.07623 19150 ft 252 kts 20°
2026-04-14 15:37 54.99590 -5.06264 19354 ft 253 kts 20°
2026-04-14 15:37 55.01166 -5.04900 19569 ft 254 kts 21°
2026-04-14 15:38 55.02752 -5.03526 19787 ft 255 kts 20°
2026-04-14 15:38 55.04343 -5.02152 20001 ft 256 kts 20°
2026-04-14 15:38 55.05944 -5.00763 20206 ft 257 kts 21°
2026-04-14 15:38 55.07544 -4.99372 20385 ft 258 kts 20°
2026-04-14 15:39 55.09154 -4.97973 20561 ft 258 kts 20°
2026-04-14 15:39 55.10765 -4.96580 20732 ft 259 kts 20°
2026-04-14 15:39 55.12382 -4.95159 20875 ft 261 kts 21°
2026-04-14 15:39 55.13984 -4.93736 21028 ft 261 kts 21°
2026-04-14 15:40 55.15607 -4.92294 21185 ft 262 kts 21°
2026-04-14 15:40 55.17234 -4.90842 21306 ft 264 kts 21°
2026-04-14 15:40 55.18890 -4.89376 21369 ft 269 kts 21°
2026-04-14 15:40 55.20563 -4.87890 21524 ft 270 kts 21°
2026-04-14 15:41 55.22245 -4.86399 21693 ft 271 kts 21°
2026-04-14 15:41 55.23934 -4.84910 21853 ft 271 kts 21°
2026-04-14 15:41 55.25621 -4.83423 22002 ft 272 kts 21°
2026-04-14 15:41 55.27316 -4.81933 22136 ft 273 kts 21°
2026-04-14 15:42 55.29013 -4.80440 22292 ft 273 kts 21°
2026-04-14 15:42 55.30715 -4.78940 22424 ft 274 kts 21°
2026-04-14 15:42 55.32442 -4.77572 22552 ft 271 kts 14°
2026-04-14 15:42 55.34228 -4.76529 22670 ft 270 kts 10°
2026-04-14 15:43 55.36023 -4.75573 22784 ft 270 kts 10°
2026-04-14 15:43 55.37818 -4.74590 22941 ft 270 kts 11°
2026-04-14 15:43 55.39609 -4.73541 23003 ft 273 kts 12°
2026-04-14 15:43 55.41420 -4.72452 23030 ft 277 kts 12°
2026-04-14 15:44 55.43228 -4.71366 23054 ft 280 kts 12°
2026-04-14 15:44 55.45077 -4.70251 23060 ft 283 kts 12°
2026-04-14 15:44 55.46976 -4.69107 23058 ft 286 kts 12°
2026-04-14 15:44 55.48847 -4.67976 23050 ft 288 kts 12°
2026-04-14 15:45 55.50747 -4.66829 23045 ft 289 kts 12°
2026-04-14 15:45 55.52653 -4.65675 23054 ft 289 kts 12°
2026-04-14 15:45 55.54561 -4.64522 23057 ft 290 kts 12°
2026-04-14 15:45 55.56470 -4.63363 23054 ft 290 kts 12°
2026-04-14 15:46 55.58387 -4.62203 23067 ft 291 kts 12°
2026-04-14 15:46 55.60309 -4.61037 23053 ft 292 kts 12°
2026-04-14 15:46 55.62229 -4.59869 23054 ft 292 kts 12°
2026-04-14 15:46 55.64148 -4.58703 23059 ft 292 kts 12°
2026-04-14 15:47 55.66077 -4.57528 23058 ft 292 kts 13°
2026-04-14 15:47 55.68003 -4.56354 23064 ft 292 kts 12°
2026-04-14 15:47 55.69926 -4.55181 23078 ft 292 kts 12°
2026-04-14 15:47 55.71843 -4.54007 23080 ft 292 kts 12°
2026-04-14 15:48 55.73764 -4.52834 23087 ft 292 kts 12°
2026-04-14 15:48 55.75690 -4.51658 23090 ft 292 kts 12°
2026-04-14 15:48 55.77586 -4.50504 23081 ft 292 kts 12°
2026-04-14 15:48 55.79509 -4.49329 23087 ft 292 kts 12°
2026-04-14 15:49 55.81426 -4.48151 23088 ft 292 kts 12°
2026-04-14 15:49 55.83350 -4.46968 23090 ft 292 kts 12°
2026-04-14 15:49 55.85269 -4.45791 23078 ft 292 kts 12°
2026-04-14 15:49 55.87196 -4.44648 23084 ft 290 kts
2026-04-14 15:50 55.89160 -4.43916 23084 ft 285 kts
2026-04-14 15:50 55.91123 -4.43514 23080 ft 283 kts 358°
2026-04-14 15:50 55.93077 -4.43175 23084 ft 283 kts 358°
2026-04-14 15:50 55.95042 -4.42796 23094 ft 284 kts 359°
2026-04-14 15:51 55.97003 -4.42354 23087 ft 285 kts
2026-04-14 15:51 55.98970 -4.41898 23084 ft 284 kts
2026-04-14 15:51 56.00929 -4.41443 23077 ft 284 kts
2026-04-14 15:51 56.02888 -4.40989 23086 ft 284 kts
2026-04-14 15:52 56.04855 -4.40530 23079 ft 284 kts
2026-04-14 15:52 56.06783 -4.40077 23095 ft 285 kts
2026-04-14 15:52 56.08761 -4.39623 23078 ft 287 kts
2026-04-14 15:52 56.10756 -4.39161 23083 ft 289 kts
2026-04-14 15:53 56.12756 -4.38695 23082 ft 290 kts
2026-04-14 15:53 56.14765 -4.38227 23085 ft 292 kts
2026-04-14 15:53 56.16783 -4.37734 23085 ft 293 kts
2026-04-14 15:53 56.18813 -4.37253 23087 ft 295 kts
2026-04-14 15:54 56.22896 -4.36298 23079 ft 296 kts
2026-04-14 15:54 56.24920 -4.35821 23084 ft 297 kts
2026-04-14 15:54 56.26976 -4.35334 23076 ft 298 kts
2026-04-14 15:55 56.29030 -4.34852 23075 ft 298 kts
2026-04-14 15:55 56.31079 -4.34363 23073 ft 297 kts
2026-04-14 15:55 56.33132 -4.33880 23076 ft 296 kts
2026-04-14 15:55 56.35174 -4.33395 23087 ft 296 kts
2026-04-14 15:56 56.37215 -4.32913 23087 ft 296 kts
2026-04-14 15:56 56.39262 -4.32430 23090 ft 296 kts
2026-04-14 15:56 56.41305 -4.31947 23070 ft 297 kts
2026-04-14 15:56 56.43359 -4.31461 23089 ft 297 kts
2026-04-14 15:57 56.45418 -4.30980 23084 ft 298 kts
2026-04-14 15:57 56.47474 -4.30490 23080 ft 299 kts
2026-04-14 15:57 56.49531 -4.29976 23078 ft 299 kts
2026-04-14 15:57 56.51590 -4.29482 23081 ft 298 kts
2026-04-14 15:58 56.53654 -4.28994 23056 ft 298 kts
2026-04-14 15:58 56.55679 -4.28508 23078 ft 297 kts
2026-04-14 15:58 56.57732 -4.28018 23081 ft 298 kts
2026-04-14 15:58 56.59790 -4.27524 23076 ft 298 kts
2026-04-14 15:59 56.61845 -4.27032 23085 ft 298 kts
2026-04-14 15:59 56.63899 -4.26541 23089 ft 298 kts
2026-04-14 15:59 56.65962 -4.26052 23074 ft 299 kts
2026-04-14 15:59 56.68020 -4.25557 23077 ft 299 kts
2026-04-14 16:00 56.70090 -4.25066 23073 ft 299 kts
2026-04-14 16:00 56.72163 -4.24552 22844 ft 305 kts
2026-04-14 16:00 56.74254 -4.24014 22351 ft 300 kts
2026-04-14 16:00 56.76312 -4.23467 21863 ft 297 kts
2026-04-14 16:01 56.78339 -4.22952 21401 ft 292 kts
2026-04-14 16:01 56.80347 -4.22459 20934 ft 290 kts
2026-04-14 16:01 56.82316 -4.21979 20487 ft 288 kts
2026-04-14 16:01 56.84302 -4.21500 20061 ft 287 kts
2026-04-14 16:02 56.86282 -4.21019 19619 ft 287 kts
2026-04-14 16:02 56.88254 -4.20539 19178 ft 286 kts
2026-04-14 16:02 56.90223 -4.20059 18739 ft 285 kts
2026-04-14 16:02 56.92191 -4.19582 18326 ft 285 kts
2026-04-14 16:03 56.94154 -4.19116 17853 ft 284 kts
2026-04-14 16:03 56.96116 -4.18661 17370 ft 284 kts
2026-04-14 16:03 56.98078 -4.18211 16899 ft 283 kts
2026-04-14 16:03 57.00026 -4.17757 16435 ft 283 kts
2026-04-14 16:04 57.01973 -4.17271 15969 ft 282 kts
2026-04-14 16:04 57.03918 -4.16780 15501 ft 281 kts
2026-04-14 16:04 57.05860 -4.16297 15053 ft 280 kts
2026-04-14 16:04 57.07785 -4.15822 14617 ft 279 kts
2026-04-14 16:05 57.09706 -4.15348 14190 ft 279 kts
2026-04-14 16:05 57.11633 -4.14879 13758 ft 279 kts
2026-04-14 16:05 57.13557 -4.14407 13270 ft 279 kts
2026-04-14 16:05 57.15452 -4.13788 12782 ft 277 kts 17°
2026-04-14 16:06 57.17168 -4.12275 12320 ft 277 kts 26°
2026-04-14 16:06 57.18864 -4.10585 11854 ft 277 kts 27°
2026-04-14 16:06 57.20551 -4.08857 11394 ft 277 kts 28°
2026-04-14 16:06 57.22227 -4.07123 10944 ft 276 kts 28°
2026-04-14 16:07 57.23907 -4.05381 10504 ft 276 kts 28°
2026-04-14 16:07 57.25575 -4.03654 10063 ft 275 kts 28°
2026-04-14 16:07 57.26687 -4.02504 9772 ft 275 kts 28°
2026-04-14 16:07 57.28353 -4.00790 9292 ft 274 kts 28°
2026-04-14 16:08 57.30018 -3.99080 8800 ft 273 kts 29°
2026-04-14 16:08 57.31677 -3.97390 8332 ft 271 kts 28°
2026-04-14 16:08 57.33330 -3.95708 7869 ft 270 kts 29°
2026-04-14 16:08 57.34973 -3.94048 7413 ft 269 kts 29°
2026-04-14 16:09 57.36616 -3.92402 6963 ft 268 kts 29°
2026-04-14 16:09 57.38252 -3.90778 6516 ft 266 kts 29°
2026-04-14 16:09 57.39888 -3.89168 6055 ft 265 kts 29°
2026-04-14 16:09 57.41493 -3.87609 5578 ft 263 kts 29°
2026-04-14 16:10 57.43102 -3.86071 5292 ft 255 kts 29°
2026-04-14 16:10 57.44642 -3.84613 5186 ft 242 kts 28°
2026-04-14 16:10 57.46109 -3.83227 5103 ft 231 kts 28°
2026-04-14 16:10 57.47517 -3.81921 5075 ft 221 kts 28°
2026-04-14 16:11 57.48869 -3.80675 5082 ft 213 kts 28°
2026-04-14 16:11 57.50182 -3.79474 5062 ft 208 kts 28°
2026-04-14 16:11 57.51466 -3.78301 5064 ft 203 kts 28°
2026-04-14 16:11 57.52724 -3.77149 5070 ft 200 kts 28°
2026-04-14 16:12 57.53836 -3.76134 5065 ft 199 kts 28°
2026-04-14 16:12 57.55071 -3.75014 5072 ft 197 kts 28°
2026-04-14 16:12 57.56300 -3.73901 5093 ft 195 kts 28°
2026-04-14 16:12 57.57514 -3.72802 5071 ft 194 kts 28°
2026-04-14 16:13 57.58707 -3.71724 5093 ft 192 kts 28°
2026-04-14 16:13 57.59908 -3.70640 5053 ft 193 kts 29°
2026-04-14 16:13 57.61163 -3.69490 4773 ft 208 kts 29°
2026-04-14 16:13 57.62493 -3.68266 4468 ft 218 kts 28°
2026-04-14 16:14 57.63879 -3.66989 4139 ft 225 kts 29°
2026-04-14 16:14 57.65302 -3.65679 3812 ft 229 kts 29°
2026-04-14 16:14 57.66739 -3.64355 3507 ft 231 kts 29°
2026-04-14 16:14 57.68185 -3.63038 3273 ft 229 kts 29°
2026-04-14 16:15 57.69602 -3.61771 3164 ft 222 kts 29°
2026-04-14 16:15 57.70971 -3.60562 3116 ft 214 kts 29°
2026-04-14 16:15 57.72278 -3.59413 3101 ft 207 kts 29°
2026-04-14 16:15 57.73564 -3.58293 3084 ft 201 kts 28°
2026-04-14 16:16 57.74814 -3.57194 3078 ft 196 kts 28°
2026-04-14 16:16 57.76115 -3.56696 3080 ft 194 kts 351°
2026-04-14 16:16 57.77240 -3.57921 3086 ft 188 kts 304°
2026-04-14 16:16 57.77596 -3.60126 3086 ft 173 kts 256°
2026-04-14 16:17 57.77064 -3.61972 3090 ft 157 kts 221°
2026-04-14 16:17 57.76319 -3.63464 3081 ft 158 kts 221°
2026-04-14 16:17 57.75481 -3.65043 3088 ft 187 kts 220°
2026-04-14 16:17 57.74472 -3.66861 3100 ft 214 kts 220°
2026-04-14 16:18 57.73367 -3.68830 3084 ft 215 kts 220°
2026-04-14 16:18 57.72313 -3.70715 3083 ft 205 kts 220°
2026-04-14 16:18 57.71300 -3.72509 3077 ft 196 kts 219°
2026-04-14 16:18 57.70324 -3.74240 3081 ft 191 kts 219°
2026-04-14 16:19 57.69379 -3.75908 3074 ft 187 kts 219°
2026-04-14 16:19 57.68445 -3.77562 3080 ft 184 kts 219°
2026-04-14 16:19 57.67524 -3.79207 3083 ft 182 kts 219°
2026-04-14 16:19 57.66603 -3.80835 3078 ft 182 kts 219°
2026-04-14 16:20 57.65679 -3.82471 3087 ft 183 kts 219°
2026-04-14 16:20 57.64769 -3.84088 2951 ft 179 kts 218°
2026-04-14 16:20 57.63832 -3.85610 2680 ft 176 kts 217°
2026-04-14 16:20 57.62945 -3.87054 2444 ft 168 kts 218°
2026-04-14 16:21 57.62094 -3.88506 2214 ft 163 kts 218°
2026-04-14 16:21 57.61296 -3.89924 1997 ft 152 kts 219°
2026-04-14 16:21 57.60571 -3.91234 1799 ft 139 kts 219°
2026-04-14 16:21 57.59899 -3.92466 1617 ft 132 kts 219°
2026-04-14 16:22 57.59308 -3.93687 1433 ft 122 kts 224°
2026-04-14 16:22 57.58774 -3.94883 1284 ft 118 kts 225°
2026-04-14 16:22 57.58240 -3.96067 1098 ft 120 kts 225°
2026-04-14 16:22 57.57702 -3.97241 922 ft 119 kts 225°
2026-04-14 16:23 57.57177 -3.98374 756 ft 116 kts 226°
2026-04-14 16:23 57.56641 -3.99493 643 ft 114 kts 223°
2026-04-14 16:23 57.56129 -4.00630 495 ft 113 kts 227°
2026-04-14 16:23 57.55639 -4.01784 275 ft 113 kts 224°
2026-04-14 16:24 57.55119 -4.02860 148 ft 111 kts 224°
2026-04-14 16:24 57.54608 -4.03964 33 ft 110 kts 225°
2026-04-14 16:24 57.54236 -4.04743 31 ft 26 kts 233°
2026-04-14 16:24 57.54127 -4.05003 32 ft 24 kts 230°
2026-04-14 16:25 57.54019 -4.05251 34 ft 25 kts 229°
2026-04-14 16:25 57.53912 -4.05487 37 ft 23 kts 228°
2026-04-14 16:25 57.53799 -4.05736 37 ft 26 kts 230°
2026-04-14 16:25 57.53719 -4.05968 36 ft 15 kts 271°
2026-04-14 16:26 57.53778 -4.06156 33 ft 19 kts 314°
2026-04-14 16:26 57.53888 -4.06172 33 ft 14 kts
2026-04-14 16:26 57.53914 -4.06201 33 ft 7 kts 273°
2026-04-14 16:26 57.53916 -4.06266 33 ft 0 kts 276°